Year,Month,Day,Hour,Minute,Value (Times are PST for temperature in C)
2010,03,22,07,57,6.60
2010,03,22,07,58,6.60
2010,03,22,07,59,6.60
2010,03,22,08,00,6.70
2010,03,22,08,01,6.70
2010,03,22,08,02,6.70
2010,03,22,08,03,6.70
2010,03,22,08,04,6.80
2010,03,22,08,05,6.80
2010,03,22,08,06,6.80
2010,03,22,08,07,6.80
2010,03,22,08,08,6.80
2010,03,22,08,09,6.90
2010,03,22,08,10,6.90
2010,03,22,08,11,7.00
2010,03,22,08,12,7.00
2010,03,22,08,13,7.10
2010,03,22,08,14,7.10
2010,03,22,08,15,7.10
2010,03,22,08,16,7.20
2010,03,22,08,17,7.20
2010,03,22,08,18,7.20
2010,03,22,08,19,7.30
2010,03,22,08,20,7.30
2010,03,22,08,21,7.30
2010,03,22,08,22,7.30
2010,03,22,08,23,7.30
2010,03,22,08,24,7.30
2010,03,22,08,25,7.40
2010,03,22,08,26,7.40
2010,03,22,08,27,7.40
2010,03,22,08,28,7.40
2010,03,22,08,29,7.50
2010,03,22,08,30,7.50
2010,03,22,08,31,7.50
2010,03,22,08,32,7.60
2010,03,22,08,33,7.60
2010,03,22,08,34,7.60
2010,03,22,08,35,7.60
2010,03,22,08,36,7.50
2010,03,22,08,37,7.50
2010,03,22,08,38,7.50
2010,03,22,08,39,7.50
2010,03,22,08,40,7.40
2010,03,22,08,41,7.40
2010,03,22,08,42,7.40
2010,03,22,08,43,7.40
2010,03,22,08,44,7.50
2010,03,22,08,45,7.50
2010,03,22,08,46,7.50
2010,03,22,08,47,7.50
2010,03,22,08,48,7.60
2010,03,22,08,49,7.60
2010,03,22,08,50,7.60
2010,03,22,08,51,7.60
2010,03,22,08,52,7.70
2010,03,22,08,53,7.70
2010,03,22,08,54,7.70
2010,03,22,08,55,7.80
2010,03,22,08,56,7.80
2010,03,22,08,57,7.80
2010,03,22,08,58,7.80
2010,03,22,08,59,7.90
2010,03,22,09,00,7.90
2010,03,22,09,01,8.00
2010,03,22,09,02,8.00
2010,03,22,09,03,8.10
2010,03,22,09,04,8.10
2010,03,22,09,05,8.10
2010,03,22,09,06,8.10
2010,03,22,09,07,8.20
2010,03,22,09,08,8.20
2010,03,22,09,09,8.20
2010,03,22,09,10,8.20
2010,03,22,09,11,8.20
2010,03,22,09,12,8.20
2010,03,22,09,13,8.20
2010,03,22,09,14,8.30
2010,03,22,09,15,8.30
2010,03,22,09,16,8.40
2010,03,22,09,17,8.40
2010,03,22,09,18,8.40
2010,03,22,09,19,8.40
2010,03,22,09,20,8.50
2010,03,22,09,21,8.50
2010,03,22,09,22,8.60
2010,03,22,09,23,8.60
2010,03,22,09,24,8.60
2010,03,22,09,25,8.70
2010,03,22,09,26,8.70
2010,03,22,09,27,8.70
2010,03,22,09,28,8.70
2010,03,22,09,30,8.70
2010,03,22,09,31,8.70
2010,03,22,09,32,8.70
2010,03,22,09,33,8.70
2010,03,22,09,34,8.70
2010,03,22,09,35,8.70
2010,03,22,09,36,8.70
2010,03,22,09,37,8.60
2010,03,22,09,38,8.60
2010,03,22,09,39,8.60
2010,03,22,09,40,8.60
2010,03,22,09,41,8.60
2010,03,22,09,42,8.70
2010,03,22,09,43,8.70
2010,03,22,09,44,8.70
2010,03,22,09,45,8.70
2010,03,22,09,46,8.70
2010,03,22,09,47,8.70
2010,03,22,09,48,8.70
2010,03,22,09,49,8.70
2010,03,22,09,50,8.70
2010,03,22,09,51,8.80
2010,03,22,09,52,8.90
2010,03,22,09,53,8.90
2010,03,22,09,54,8.90
2010,03,22,09,55,9.00
2010,03,22,09,56,9.00
2010,03,22,09,57,9.00
2010,03,22,09,58,9.00
2010,03,22,09,59,9.10
2010,03,22,10,00,9.20
2010,03,22,10,01,9.20
2010,03,22,10,02,9.20
2010,03,22,10,03,9.30
2010,03,22,10,04,9.40
2010,03,22,10,05,9.40
2010,03,22,10,06,9.50
2010,03,22,10,07,9.60
2010,03,22,10,08,9.60
2010,03,22,10,09,9.70
2010,03,22,10,10,9.70
2010,03,22,10,11,9.70
2010,03,22,10,12,9.70
2010,03,22,10,13,9.60
2010,03,22,10,14,9.60
2010,03,22,10,15,9.60
2010,03,22,10,16,9.70
2010,03,22,10,17,9.70
2010,03,22,10,18,9.70
2010,03,22,10,19,9.70
2010,03,22,10,20,9.70
2010,03,22,10,21,9.80
2010,03,22,10,22,9.90
2010,03,22,10,23,9.90
2010,03,22,10,24,10.00
2010,03,22,10,25,10.10
2010,03,22,10,26,10.10
2010,03,22,10,27,10.20
2010,03,22,10,28,10.30
2010,03,22,10,29,10.30
2010,03,22,10,30,10.30
2010,03,22,10,31,10.40
2010,03,22,10,32,10.40
2010,03,22,10,33,10.40
2010,03,22,10,34,10.40
2010,03,22,10,35,10.40
2010,03,22,10,36,10.50
2010,03,22,10,37,10.60
2010,03,22,10,38,10.60
2010,03,22,10,39,10.50
2010,03,22,10,40,10.40
2010,03,22,10,41,10.40
2010,03,22,10,42,10.40
2010,03,22,10,43,10.40
2010,03,22,10,44,10.60
2010,03,22,10,45,10.60
2010,03,22,10,46,10.60
2010,03,22,10,47,10.60
2010,03,22,10,48,10.70
2010,03,22,10,49,10.70
2010,03,22,10,50,10.70
2010,03,22,10,51,10.60
2010,03,22,10,52,10.60
2010,03,22,10,53,10.60
2010,03,22,10,54,10.60
2010,03,22,10,55,10.60
2010,03,22,10,56,10.60
2010,03,22,10,57,10.60
2010,03,22,10,58,10.50
2010,03,22,10,59,10.40
2010,03,22,11,00,10.40
2010,03,22,11,01,10.40
2010,03,22,11,02,10.40
2010,03,22,11,03,10.40
2010,03,22,11,04,10.40
2010,03,22,11,05,10.50
2010,03,22,11,06,10.60
2010,03,22,11,07,10.60
2010,03,22,11,08,10.60
2010,03,22,11,09,10.70
2010,03,22,11,10,10.80
2010,03,22,11,11,10.90
2010,03,22,11,12,11.00
2010,03,22,11,13,11.10
2010,03,22,11,14,11.10
2010,03,22,11,15,11.10
2010,03,22,11,16,11.00
2010,03,22,11,17,10.90
2010,03,22,11,18,10.90
2010,03,22,11,19,10.90
2010,03,22,11,20,10.90
2010,03,22,11,21,10.90
2010,03,22,11,22,10.90
2010,03,22,11,23,11.00
2010,03,22,11,24,11.10
2010,03,22,11,25,11.10
2010,03,22,11,26,11.10
2010,03,22,11,27,11.20
2010,03,22,11,28,11.20
2010,03,22,11,29,11.20
2010,03,22,11,30,11.20
2010,03,22,11,31,11.20
2010,03,22,11,32,11.30
2010,03,22,11,33,11.30
2010,03,22,11,34,11.40
2010,03,22,11,35,11.40
2010,03,22,11,36,11.40
2010,03,22,11,37,11.40
2010,03,22,11,38,11.40
2010,03,22,11,39,11.50
2010,03,22,11,40,11.60
2010,03,22,11,41,11.60
2010,03,22,11,42,11.50
2010,03,22,11,43,11.50
2010,03,22,11,44,11.60
2010,03,22,11,45,11.60
2010,03,22,11,46,11.60
2010,03,22,11,47,11.60
2010,03,22,11,48,11.60
2010,03,22,11,49,11.60
2010,03,22,11,50,11.60
2010,03,22,11,51,11.70
2010,03,22,11,52,11.80
2010,03,22,11,53,11.80
2010,03,22,11,54,11.80
2010,03,22,11,55,11.80
2010,03,22,11,56,11.90
2010,03,22,11,57,11.90
2010,03,22,11,58,11.90
2010,03,22,11,59,11.90
2010,03,22,12,00,11.90
2010,03,22,12,01,11.90
2010,03,22,12,02,11.90
2010,03,22,12,03,12.00
2010,03,22,12,04,12.10
2010,03,22,12,05,12.10
2010,03,22,12,06,12.10
2010,03,22,12,07,12.10
2010,03,22,12,08,12.20
2010,03,22,12,09,12.20
2010,03,22,12,10,12.30
2010,03,22,12,11,12.30
2010,03,22,12,12,12.30
2010,03,22,12,13,12.30
2010,03,22,12,14,12.30
2010,03,22,12,15,12.30
2010,03,22,12,16,12.30
2010,03,22,12,17,12.30
2010,03,22,12,18,12.30
2010,03,22,12,19,12.30
2010,03,22,12,20,12.40
2010,03,22,12,21,12.40
2010,03,22,12,22,12.20
2010,03,22,12,23,12.10
2010,03,22,12,24,12.00
2010,03,22,12,25,12.00
2010,03,22,12,26,12.00
2010,03,22,12,27,12.10
2010,03,22,12,28,12.10
2010,03,22,12,29,12.20
2010,03,22,12,30,12.40
2010,03,22,12,31,12.50
2010,03,22,12,32,12.60
2010,03,22,12,33,12.60
2010,03,22,12,34,12.70
2010,03,22,12,35,12.70
2010,03,22,12,36,12.60
2010,03,22,12,37,12.50
2010,03,22,12,38,12.40
2010,03,22,12,39,12.40
2010,03,22,12,40,12.40
2010,03,22,12,41,12.40
2010,03,22,12,42,12.40
2010,03,22,12,43,12.50
2010,03,22,12,44,12.60
2010,03,22,12,45,12.70
2010,03,22,12,46,12.60
2010,03,22,12,47,12.70
2010,03,22,12,48,12.60
2010,03,22,12,49,12.50
2010,03,22,12,50,12.50
2010,03,22,12,51,12.50
2010,03,22,12,52,12.50
2010,03,22,12,53,12.50
2010,03,22,12,54,12.40
2010,03,22,12,55,12.40
2010,03,22,12,56,12.40
2010,03,22,12,57,12.40
2010,03,22,12,58,12.40
2010,03,22,12,59,12.50
2010,03,22,13,00,12.50
2010,03,22,13,01,12.40
2010,03,22,13,02,12.30
2010,03,22,13,03,12.40
2010,03,22,13,04,12.50
2010,03,22,13,05,12.50
2010,03,22,13,06,12.60
2010,03,22,13,07,12.80
2010,03,22,13,08,12.90
2010,03,22,13,09,13.00
2010,03,22,13,10,13.10
2010,03,22,13,11,13.10
2010,03,22,13,12,13.10
2010,03,22,13,13,13.00
2010,03,22,13,14,13.00
2010,03,22,13,15,13.00
2010,03,22,13,16,12.90
2010,03,22,13,17,12.80
2010,03,22,13,18,12.90
2010,03,22,13,19,12.90
2010,03,22,13,20,12.80
2010,03,22,13,21,12.80
2010,03,22,13,22,12.80
2010,03,22,13,23,12.80
2010,03,22,13,24,12.80
2010,03,22,13,25,12.80
2010,03,22,13,26,12.70
2010,03,22,13,27,12.70
2010,03,22,13,28,12.60
2010,03,22,13,29,12.50
2010,03,22,13,30,12.30
2010,03,22,13,31,12.20
2010,03,22,13,32,12.10
2010,03,22,13,33,12.10
2010,03,22,13,34,12.10
2010,03,22,13,35,12.10
2010,03,22,13,36,12.00
2010,03,22,13,37,12.00
2010,03,22,13,38,11.90
2010,03,22,13,39,12.00
2010,03,22,13,40,12.00
2010,03,22,13,41,12.10
2010,03,22,13,42,12.00
2010,03,22,13,43,12.00
2010,03,22,13,44,11.90
2010,03,22,13,45,11.90
2010,03,22,13,46,11.90
2010,03,22,13,47,11.90
2010,03,22,13,48,11.90
2010,03,22,13,49,11.80
2010,03,22,13,50,11.70
2010,03,22,13,51,11.60
2010,03,22,13,52,11.60
2010,03,22,13,53,11.50
2010,03,22,13,54,11.40
2010,03,22,13,55,11.40
2010,03,22,13,56,11.50
2010,03,22,13,57,11.60
2010,03,22,13,58,11.60
2010,03,22,13,59,11.60
2010,03,22,14,00,11.70
2010,03,22,14,01,11.70
2010,03,22,14,02,11.80
2010,03,22,14,03,11.80
2010,03,22,14,04,11.80
2010,03,22,14,05,11.80
2010,03,22,14,06,11.80
2010,03,22,14,07,11.80
2010,03,22,14,08,11.70
2010,03,22,14,09,11.80
2010,03,22,14,10,11.80
2010,03,22,14,11,11.80
2010,03,22,14,12,11.80
2010,03,22,14,13,11.80
2010,03,22,14,14,11.90
2010,03,22,14,15,11.90
2010,03,22,14,16,12.00
2010,03,22,14,17,12.10
2010,03,22,14,18,12.10
2010,03,22,14,19,12.10
2010,03,22,14,20,12.10
2010,03,22,14,21,12.10
2010,03,22,14,22,12.10
2010,03,22,14,23,12.10
2010,03,22,14,24,12.00
2010,03,22,14,25,11.90
2010,03,22,14,26,11.90
2010,03,22,14,27,11.80
2010,03,22,14,28,11.80
2010,03,22,14,29,11.70
2010,03,22,14,30,11.70
2010,03,22,14,31,11.60
2010,03,22,14,32,11.60
2010,03,22,14,33,11.60
2010,03,22,14,34,11.60
2010,03,22,14,35,11.60
2010,03,22,14,36,11.60
2010,03,22,14,37,11.80
2010,03,22,14,38,11.90
2010,03,22,14,39,11.90
2010,03,22,14,40,11.80
2010,03,22,14,41,11.80
2010,03,22,14,42,11.80
2010,03,22,14,43,11.70
2010,03,22,14,44,11.60
2010,03,22,14,45,11.60
2010,03,22,14,46,11.60
2010,03,22,14,47,11.60
2010,03,22,14,48,11.60
2010,03,22,14,49,11.60
2010,03,22,14,50,11.60
2010,03,22,14,51,11.60
2010,03,22,14,52,11.60
2010,03,22,14,53,11.60
2010,03,22,14,54,11.70
2010,03,22,14,55,11.80
2010,03,22,14,56,11.80
2010,03,22,14,57,11.90
2010,03,22,14,58,11.80
2010,03,22,14,59,11.80
2010,03,22,15,00,11.80
2010,03,22,15,01,11.80
2010,03,22,15,02,11.80
2010,03,22,15,03,11.80
2010,03,22,15,04,11.80
2010,03,22,15,05,11.70
2010,03,22,15,06,11.60
2010,03,22,15,07,11.60
2010,03,22,15,08,11.40
2010,03,22,15,09,11.40
2010,03,22,15,10,11.40
2010,03,22,15,11,11.40
2010,03,22,15,12,11.40
2010,03,22,15,13,11.40
2010,03,22,15,14,11.30
2010,03,22,15,15,11.30
2010,03,22,15,16,11.40
2010,03,22,15,17,11.50
2010,03,22,15,18,11.60
2010,03,22,15,19,11.60
2010,03,22,15,20,11.60
2010,03,22,15,21,11.60
2010,03,22,15,22,11.70
2010,03,22,15,23,11.70
2010,03,22,15,24,11.80
2010,03,22,15,25,11.80
2010,03,22,15,26,11.80
2010,03,22,15,27,11.80
2010,03,22,15,28,11.70
2010,03,22,15,29,11.60
2010,03,22,15,30,11.50
2010,03,22,15,31,11.30
2010,03,22,15,32,11.20
2010,03,22,15,33,11.10
2010,03,22,15,34,11.10
2010,03,22,15,35,11.10
2010,03,22,15,36,11.00
2010,03,22,15,37,10.90
2010,03,22,15,38,10.90
2010,03,22,15,39,10.90
2010,03,22,15,40,10.90
2010,03,22,15,41,10.90
2010,03,22,15,42,10.90
2010,03,22,15,43,11.00
2010,03,22,15,44,11.10
2010,03,22,15,45,11.20
2010,03,22,15,46,11.30
2010,03,22,15,47,11.40
2010,03,22,15,48,11.40
2010,03,22,15,49,11.40
2010,03,22,15,50,11.40
2010,03,22,15,51,11.30
2010,03,22,15,52,11.30
2010,03,22,15,53,11.30
2010,03,22,15,54,11.20
2010,03,22,15,55,11.20
2010,03,22,15,56,11.20
2010,03,22,15,57,11.20
2010,03,22,15,58,11.20
2010,03,22,15,59,11.20
2010,03,22,16,00,11.30
2010,03,22,16,01,11.20
2010,03,22,16,02,11.20
2010,03,22,16,03,11.20
2010,03,22,16,04,11.20
2010,03,22,16,05,11.20
2010,03,22,16,06,11.30
2010,03,22,16,07,11.40
2010,03,22,16,08,11.40
2010,03,22,16,09,11.40
2010,03,22,16,10,11.40
2010,03,22,16,11,11.30
2010,03,22,16,12,11.40
2010,03,22,16,13,11.40
2010,03,22,16,14,11.40
2010,03,22,16,15,11.60
2010,03,22,16,16,11.60
2010,03,22,16,17,11.70
2010,03,22,16,18,11.80
2010,03,22,16,19,11.80
2010,03,22,16,20,11.80
2010,03,22,16,21,11.90
2010,03,22,16,22,12.00
2010,03,22,16,23,12.00
2010,03,22,16,24,12.10
2010,03,22,16,25,12.20
2010,03,22,16,26,12.30
2010,03,22,16,27,12.30
2010,03,22,16,28,12.30
2010,03,22,16,29,12.40
2010,03,22,16,30,12.40
2010,03,22,16,31,12.50
2010,03,22,16,32,12.50
2010,03,22,16,35,12.50
2010,03,22,16,36,12.50
2010,03,22,16,37,12.60
2010,03,22,16,38,12.70
2010,03,22,16,39,12.80
2010,03,22,16,40,12.90
2010,03,22,16,41,13.00
2010,03,22,16,42,13.10
2010,03,22,16,43,13.10
2010,03,22,16,44,13.10
2010,03,22,16,45,13.20
2010,03,22,16,46,13.30
2010,03,22,16,47,13.30
2010,03,22,16,48,13.30
2010,03,22,16,49,13.40
2010,03,22,16,50,13.40
2010,03,22,16,51,13.40
2010,03,22,16,52,13.40
2010,03,22,16,53,13.40
2010,03,22,16,54,13.30
2010,03,22,16,55,13.30
2010,03,22,16,56,13.30
2010,03,22,16,57,13.30
2010,03,22,16,58,13.30
2010,03,22,16,59,13.30
2010,03,22,17,00,13.30
2010,03,22,17,01,13.40
2010,03,22,17,02,13.50
2010,03,22,17,03,13.60
2010,03,22,17,04,13.70
2010,03,22,17,05,13.80
2010,03,22,17,06,13.80
2010,03,22,17,07,13.80
2010,03,22,17,08,13.90
2010,03,22,17,09,13.90
2010,03,22,17,10,14.00
2010,03,22,17,11,14.10
2010,03,22,17,12,14.10
2010,03,22,17,13,14.10
2010,03,22,17,14,14.10
2010,03,22,17,15,14.00
2010,03,22,17,16,13.90
2010,03,22,17,17,13.90
2010,03,22,17,18,13.80
2010,03,22,17,19,13.80
2010,03,22,17,20,13.70
2010,03,22,17,21,13.80
2010,03,22,17,22,13.80
2010,03,22,17,23,13.70
2010,03,22,17,24,13.70
2010,03,22,17,25,13.70
2010,03,22,17,26,13.70
2010,03,22,17,27,13.60
2010,03,22,17,28,13.40
2010,03,22,17,29,13.20
2010,03,22,17,30,13.00
2010,03,22,17,31,12.80
2010,03,22,17,32,12.80
2010,03,22,17,33,12.80
2010,03,22,17,34,12.80
2010,03,22,17,35,12.80
2010,03,22,17,36,12.80
2010,03,22,17,37,12.80
2010,03,22,17,38,12.80
2010,03,22,17,39,12.80
2010,03,22,17,40,12.80
2010,03,22,17,41,12.80
2010,03,22,17,42,12.90
2010,03,22,17,43,13.00
2010,03,22,17,44,13.10
2010,03,22,17,45,13.20
2010,03,22,17,46,13.30
2010,03,22,17,47,13.30
2010,03,22,17,48,13.30
2010,03,22,17,49,13.40
2010,03,22,17,50,13.40
2010,03,22,17,51,13.40
2010,03,22,17,52,13.50
2010,03,22,17,53,13.50
2010,03,22,17,54,13.50
2010,03,22,17,55,13.50
2010,03,22,17,56,13.50
2010,03,22,17,57,13.40
2010,03,22,17,58,13.30
2010,03,22,17,59,13.30
2010,03,22,18,00,13.30
2010,03,22,18,01,13.30
2010,03,22,18,02,13.30
2010,03,22,18,03,13.30
2010,03,22,18,04,13.20
2010,03,22,18,05,13.10
2010,03,22,18,06,13.00
2010,03,22,18,07,13.00
2010,03,22,18,08,13.00
2010,03,22,18,09,13.00
2010,03,22,18,10,13.10
2010,03,22,18,11,13.10
2010,03,22,18,12,13.20
2010,03,22,18,13,13.30
2010,03,22,18,14,13.30
2010,03,22,18,15,13.30
2010,03,22,18,16,13.30
2010,03,22,18,17,13.20
2010,03,22,18,18,13.10
2010,03,22,18,19,13.10
2010,03,22,18,20,13.00
2010,03,22,18,21,12.90
2010,03,22,18,22,12.90
2010,03,22,18,23,12.80
2010,03,22,18,24,12.80
2010,03,22,18,25,12.80
2010,03,22,18,26,12.80
2010,03,22,18,27,12.80
2010,03,22,18,28,12.80
2010,03,22,18,29,12.80
2010,03,22,18,30,12.80
2010,03,22,18,31,12.70
2010,03,22,18,32,12.70
2010,03,22,18,33,12.60
2010,03,22,18,34,12.60
2010,03,22,18,35,12.60
2010,03,22,18,36,12.50
2010,03,22,18,37,12.50
2010,03,22,18,38,12.40
2010,03,22,18,39,12.40
2010,03,22,18,40,12.30
2010,03,22,18,41,12.30
2010,03,22,18,42,12.20
2010,03,22,18,43,12.20
2010,03,22,18,44,12.10
2010,03,22,18,45,12.10
2010,03,22,18,46,12.00
2010,03,22,18,47,12.00
2010,03,22,18,48,12.00
2010,03,22,18,49,11.90
2010,03,22,18,50,11.90
2010,03,22,18,51,11.90
2010,03,22,18,52,11.80
2010,03,22,18,53,11.80
2010,03,22,18,54,11.80
2010,03,22,18,55,11.80
2010,03,22,18,56,11.80
2010,03,22,18,57,11.70
2010,03,22,18,58,11.70
2010,03,22,18,59,11.70
2010,03,22,19,00,11.70
2010,03,22,19,01,11.60
2010,03,22,19,02,11.60
2010,03,22,19,03,11.60
2010,03,22,19,04,11.60
2010,03,22,19,05,11.60
2010,03,22,19,06,11.40
2010,03,22,19,07,11.40
2010,03,22,19,08,11.40
2010,03,22,19,09,11.40
2010,03,22,19,10,11.30
2010,03,22,19,11,11.30
2010,03,22,19,12,11.30
2010,03,22,19,13,11.20
2010,03,22,19,14,11.20
2010,03,22,19,15,11.20
2010,03,22,19,16,11.10
2010,03,22,19,17,11.10
2010,03,22,19,18,11.10
2010,03,22,19,19,11.10
2010,03,22,19,20,11.00
2010,03,22,19,21,10.90
2010,03,22,19,22,10.90
2010,03,22,19,23,10.90
2010,03,22,19,24,10.90
2010,03,22,19,25,10.80
2010,03,22,19,26,10.80
2010,03,22,19,27,10.80
2010,03,22,19,28,10.70
2010,03,22,19,29,10.70
2010,03,22,19,30,10.60
2010,03,22,19,31,10.60
2010,03,22,19,32,10.60
2010,03,22,19,33,10.60
2010,03,22,19,34,10.60
2010,03,22,19,35,10.40
2010,03,22,19,36,10.40
2010,03,22,19,37,10.40
2010,03,22,19,38,10.40
2010,03,22,19,39,10.30
2010,03,22,19,40,10.30
2010,03,22,19,41,10.20
2010,03,22,19,42,10.20
2010,03,22,19,43,10.20
2010,03,22,19,44,10.10
2010,03,22,19,45,10.10
2010,03,22,19,46,10.10
2010,03,22,19,47,10.10
2010,03,22,19,48,10.10
2010,03,22,19,49,10.10
2010,03,22,19,50,10.00
2010,03,22,19,51,9.90
2010,03,22,19,52,9.90
2010,03,22,19,53,9.90
2010,03,22,19,54,9.90
2010,03,22,19,55,9.90
2010,03,22,19,56,9.90
2010,03,22,19,57,9.80
2010,03,22,19,58,9.80
2010,03,22,19,59,9.80
2010,03,22,20,00,9.70
2010,03,22,20,01,9.70
2010,03,22,20,02,9.70
2010,03,22,20,03,9.70
2010,03,22,20,04,9.70
2010,03,22,20,05,9.70
2010,03,22,20,06,9.70
2010,03,22,20,07,9.60
2010,03,22,20,08,9.60
2010,03,22,20,09,9.60
2010,03,22,20,10,9.60
2010,03,22,20,11,9.60
2010,03,22,20,12,9.50
2010,03,22,20,13,9.50
2010,03,22,20,14,9.50
2010,03,22,20,15,9.50
2010,03,22,20,16,9.50
2010,03,22,20,17,9.40
2010,03,22,20,18,9.40
2010,03,22,20,19,9.40
2010,03,22,20,20,9.40
2010,03,22,20,21,9.30
2010,03,22,20,22,9.30
2010,03,22,20,23,9.30
2010,03,22,20,24,9.30
2010,03,22,20,25,9.20
2010,03,22,20,26,9.20
2010,03,22,20,27,9.20
2010,03,22,20,28,9.20
2010,03,22,20,29,9.20
2010,03,22,20,30,9.20
2010,03,22,20,31,9.20
2010,03,22,20,32,9.20
2010,03,22,20,33,9.20
2010,03,22,20,34,9.10
2010,03,22,20,35,9.10
2010,03,22,20,36,9.10
2010,03,22,20,37,9.10
2010,03,22,20,38,9.10
2010,03,22,20,39,9.10
2010,03,22,20,40,9.10
2010,03,22,20,41,9.00
2010,03,22,20,42,9.00
2010,03,22,20,43,9.00
2010,03,22,20,44,9.00
2010,03,22,20,45,9.00
2010,03,22,20,46,9.00
2010,03,22,20,47,8.90
2010,03,22,20,48,8.90
2010,03,22,20,49,8.90
2010,03,22,20,50,8.90
2010,03,22,20,51,8.90
2010,03,22,20,52,8.90
2010,03,22,20,53,8.80
2010,03,22,20,54,8.80
2010,03,22,20,55,8.80
2010,03,22,20,56,8.80
2010,03,22,20,57,8.80
2010,03,22,20,58,8.80
2010,03,22,20,59,8.80
2010,03,22,21,00,8.70
2010,03,22,21,01,8.70
2010,03,22,21,02,8.70
2010,03,22,21,03,8.70
2010,03,22,21,04,8.70
2010,03,22,21,05,8.70
2010,03,22,21,06,8.60
2010,03,22,21,07,8.60
2010,03,22,21,08,8.50
2010,03,22,21,09,8.50
2010,03,22,21,10,8.40
2010,03,22,21,11,8.40
2010,03,22,21,12,8.40
2010,03,22,21,13,8.30
2010,03,22,21,14,8.30
2010,03,22,21,15,8.30
2010,03,22,21,16,8.20
2010,03,22,21,17,8.20
2010,03,22,21,18,8.20
2010,03,22,21,19,8.20
2010,03,22,21,20,8.20
2010,03,22,21,21,8.20
2010,03,22,21,22,8.20
2010,03,22,21,23,8.20
2010,03,22,21,24,8.20
2010,03,22,21,25,8.20
2010,03,22,21,26,8.20
2010,03,22,21,27,8.20
2010,03,22,21,28,8.20
2010,03,22,21,29,8.20
2010,03,22,21,30,8.20
2010,03,22,21,31,8.20
2010,03,22,21,32,8.20
2010,03,22,21,33,8.20
2010,03,22,21,34,8.20
2010,03,22,21,35,8.20
2010,03,22,21,36,8.20
2010,03,22,21,37,8.20
2010,03,22,21,38,8.20
2010,03,22,21,39,8.20
2010,03,22,21,40,8.20
2010,03,22,21,41,8.20
2010,03,22,21,42,8.20
2010,03,22,21,43,8.20
2010,03,22,21,44,8.20
2010,03,22,21,45,8.20
2010,03,22,21,46,8.20
2010,03,22,21,47,8.20
2010,03,22,21,48,8.20
2010,03,22,21,49,8.20
2010,03,22,21,50,8.20
2010,03,22,21,51,8.20
2010,03,22,21,52,8.20
2010,03,22,21,53,8.20
2010,03,22,21,54,8.20
2010,03,22,21,55,8.20
2010,03,22,21,56,8.20
2010,03,22,21,57,8.20
2010,03,22,21,58,8.20
2010,03,22,21,59,8.20
2010,03,22,22,00,8.20
2010,03,22,22,01,8.20
2010,03,22,22,02,8.20
2010,03,22,22,03,8.20
2010,03,22,22,04,8.20
2010,03,22,22,05,8.20
2010,03,22,22,06,8.20
2010,03,22,22,07,8.20
2010,03,22,22,08,8.20
2010,03,22,22,09,8.10
2010,03,22,22,10,8.10
2010,03,22,22,11,8.10
2010,03,22,22,12,8.10
2010,03,22,22,13,8.00
2010,03,22,22,14,8.00
2010,03,22,22,15,8.00
2010,03,22,22,16,8.00
2010,03,22,22,17,8.00
2010,03,22,22,18,8.00
2010,03,22,22,19,7.90
2010,03,22,22,20,7.90
2010,03,22,22,21,7.90
2010,03,22,22,22,7.90
2010,03,22,22,23,7.90
2010,03,22,22,24,7.90
2010,03,22,22,25,7.90
2010,03,22,22,26,7.90
2010,03,22,22,27,7.90
2010,03,22,22,28,7.90
2010,03,22,22,29,7.90
2010,03,22,22,30,7.80
2010,03,22,22,31,7.80
2010,03,22,22,32,7.80
2010,03,22,22,33,7.80
2010,03,22,22,34,7.80
2010,03,22,22,35,7.80
2010,03,22,22,36,7.70
2010,03,22,22,37,7.70
2010,03,22,22,38,7.70
2010,03,22,22,39,7.70
2010,03,22,22,40,7.80
2010,03,22,22,41,7.80
2010,03,22,22,42,7.80
2010,03,22,22,43,7.80
2010,03,22,22,44,7.80
2010,03,22,22,45,7.80
2010,03,22,22,46,7.80
2010,03,22,22,47,7.80
2010,03,22,22,48,7.80
2010,03,22,22,49,7.80
2010,03,22,22,50,7.80
2010,03,22,22,51,7.70
2010,03,22,22,52,7.70
2010,03,22,22,53,7.70
2010,03,22,22,54,7.70
2010,03,22,22,55,7.70
2010,03,22,22,56,7.70
2010,03,22,22,57,7.70
2010,03,22,22,58,7.70
2010,03,22,22,59,7.70
2010,03,22,23,00,7.70
2010,03,22,23,01,7.70
2010,03,22,23,02,7.80
2010,03,22,23,03,7.80
2010,03,22,23,04,7.80
2010,03,22,23,05,7.80
2010,03,22,23,06,7.80
2010,03,22,23,07,7.90
2010,03,22,23,08,7.90
2010,03,22,23,09,7.90
2010,03,22,23,10,8.00
2010,03,22,23,11,8.00
2010,03,22,23,12,8.00
2010,03,22,23,13,8.00
2010,03,22,23,14,8.00
2010,03,22,23,15,8.00
2010,03,22,23,16,8.00
2010,03,22,23,17,8.00
2010,03,22,23,18,8.00
2010,03,22,23,19,7.90
2010,03,22,23,20,7.90
2010,03,22,23,21,7.90
2010,03,22,23,22,7.90
2010,03,22,23,23,7.90
2010,03,22,23,24,7.90
2010,03,22,23,25,7.90
2010,03,22,23,26,7.90
2010,03,22,23,27,7.90
2010,03,22,23,28,7.90
2010,03,22,23,29,7.80
2010,03,22,23,30,7.80
2010,03,22,23,31,7.80
2010,03,22,23,32,7.80
2010,03,22,23,33,7.80
2010,03,22,23,34,7.80
2010,03,22,23,35,7.80
2010,03,22,23,36,7.80
2010,03,22,23,37,7.80
2010,03,22,23,38,7.80
2010,03,22,23,39,7.70
2010,03,22,23,40,7.70
2010,03,22,23,41,7.70
2010,03,22,23,42,7.60
2010,03,22,23,43,7.60
2010,03,22,23,44,7.60
2010,03,22,23,45,7.60
2010,03,22,23,46,7.50
2010,03,22,23,47,7.50
2010,03,22,23,48,7.50
2010,03,22,23,49,7.50
2010,03,22,23,50,7.50
2010,03,22,23,51,7.50
2010,03,22,23,52,7.50
2010,03,22,23,53,7.60
2010,03,22,23,54,7.60
2010,03,22,23,55,7.60
2010,03,22,23,56,7.60
2010,03,22,23,57,7.70
2010,03,22,23,58,7.70
2010,03,22,23,59,7.70
